Home   Weather   Stade   Past weeks

Flag for Germany Past Weather in Stade, Lower Saxony, Germany — Yesterday and Last 2 Weeks

50 °F


Feels Like: 48 °F
Forecast: 50 / 55 °F
Wind: 6 mph from West

Location: Hamburg-Finkenwerder

Current Time: Oct 28, 2016 at 8:11:18 PM

Latest Report: Oct 28, 2016 at 7:20 PM

Visibility: 10 mi

Pressure: 30.39 "Hg

Humidity: 88%

Dew Point: 46 °F

Location of StadeLocation

Past Weather in Stade — Graph


Stade Temperature Yesterday

Maximum temperature yesterday: 57 °F (at 3:20 PM)
Minimum temperature yesterday: 50 °F (at 5:50 AM)
Average temperature yesterday: 53 °F

High & Low Weather Summary for the Past Weeks

High61 °F (Oct 18, 2:20 PM)100% (Oct 18, 5:50 AM)30.39 "Hg (Oct 18, 5:50 AM)
Low34 °F (Oct 26, 7:20 AM)62% (Oct 14, 2:50 PM)29.86 "Hg (Oct 15, 9:50 AM)
Average48 °F88%30.10 "Hg
* Reported Oct 13 6:20 PM — Oct 28 6:50 PM, Stade, Weather by CustomWeather, © 2016

Note: Actual official high and low records may vary slightly from our data, if they occured in-between our weather recording intervals... More about our weather records


Stade Weather History for the Previous 24 Hours

Scroll right to see more
Time TempWeatherWind HumidityBarometerVisibility
6:50 PM
Fri, Oct 28
52 °FClear.6 mph88%30.39 "Hg10 mi
6:20 PM52 °FPassing clouds.8 mph88%30.36 "HgN/A
5:50 PM54 °FScattered clouds.10 mph82%30.36 "HgN/A
5:20 PM55 °FBroken clouds.12 mph82%30.36 "HgN/A
4:50 PM55 °FPartly sunny.14 mph82%30.33 "HgN/A
4:20 PM55 °FScattered clouds.9 mph94%30.33 "HgN/A
3:50 PM55 °FScattered clouds.12 mph94%30.33 "HgN/A
3:20 PM55 °FScattered clouds.12 mph94%30.33 "HgN/A
2:50 PM55 °FScattered clouds.14 mph100%30.33 "HgN/A
2:20 PM55 °FDrizzle. Broken clouds.14 mph94%30.30 "Hg6 mi
1:50 PM55 °FPartly sunny.13 mph100%30.30 "HgN/A
1:20 PM55 °FPartly sunny.13 mph100%30.30 "Hg5 mi
12:50 PM55 °FLight rain. Fog.13 mph94%30.30 "Hg2 mi
12:20 PM54 °FLight rain. Fog.15 mph100%30.30 "Hg1 mi
11:50 AM54 °FLight rain. Fog.14 mph100%30.30 "Hg3 mi
11:20 AM54 °FLight rain. Fog.14 mph100%30.30 "Hg1 mi
10:50 AM54 °FLight rain. Fog.14 mph100%30.27 "Hg2 mi
10:20 AM54 °FLight rain. Fog.15 mph94%30.27 "Hg2 mi
9:50 AM55 °FLight rain. Fog.15 mph88%30.27 "Hg2 mi
9:20 AM55 °FPartly sunny.14 mph88%30.27 "Hg6 mi
8:50 AM55 °FPartly sunny.14 mph88%30.27 "Hg5 mi
8:20 AM54 °FPartly sunny.15 mph88%30.27 "Hg5 mi
7:50 AM54 °FPassing clouds.15 mph88%30.24 "Hg5 mi
7:20 AM54 °FPassing clouds.15 mph88%30.27 "Hg6 mi
6:50 AM54 °FPassing clouds.15 mph88%30.27 "Hg6 mi
6:20 AM54 °FPassing clouds.15 mph88%30.27 "Hg6 mi
5:50 AM54 °FPassing clouds.14 mph88%30.27 "Hg5 mi
9:50 PM
Thu, Oct 27
52 °FPartly cloudy.12 mph94%30.36 "Hg4 mi
9:20 PM52 °FPartly cloudy.13 mph94%30.36 "Hg4 mi
8:50 PM52 °FPassing clouds.12 mph94%30.39 "Hg4 mi
8:20 PM52 °FPassing clouds.12 mph94%30.36 "Hg4 mi
Weather by CustomWeather, © 2016

See weather overviewHow to use our weather pages